Hope Airport, British Columbia

3:57 AM PST on February 25, 2017 (GMT -0800)
Hope

Weather History for CYHE - March, 2013

Change the Weather History Date:

Sunday, March 3, 2013

  Actual Average Record
Temperature  
Mean Temperature 42 °F -  
Max Temperature 47 °F 53 °F 59 °F (2005)
Min Temperature 37 °F 36 °F 25 °F (2014)
Degree Days  
Heating Degree Days 23    
Moisture  
Dew Point 34 °F    
Average Humidity 72    
Maximum Humidity 93    
Minimum Humidity 48    
Precipitation  
Precipitation 0.01 in 0.21 in - ()
Sea Level Pressure  
Sea Level Pressure 30.21 in    
Wind  
Wind Speed 10 mph ()    
Max Wind Speed 20 mph    
Max Gust Speed 29 mph    
Visibility 9.0 miles    
Events Rain    
Averages and records for this station are not official NWS values.
T = Trace of Precipitation, MM = Missing Value Source: Averaged Metar Reports

Daily Weather History Graph

Daily Weather History Graph

Search for Another Location

Airport or City:

Trip Planner

Search our weather history database for the weather conditions in past years. The results will help you decide how hot, cold, wet, or windy it might be!

Date:

Astronomy

Mar. 03, 2013 Rise Set
Actual Time 6:43 AM PST 5:52 PM PST
Civil Twilight 6:11 AM PST 6:24 PM PST
Nautical Twilight 5:34 AM PST 7:01 PM PST
Astronomical Twilight 4:57 AM PST 7:38 PM PST
Moon 12:11 AM PST (3/3) 9:27 AM PST (3/3)
Length of Visible Light 12h 12m
Length of Day
11h 09m
Waning Gibbous, 62% of the Moon is Illuminated
Mar 3
Waning Gibbous
Mar 4
Last Quarter
Mar 11
New
Mar 19
First Quarter
Mar 27
Full

Hourly Weather History & Observations

Time (PST) Temp. Windchill Dew Point Humidity Pressure Visibility Wind Dir Wind Speed Gust Speed Precip Events Conditions
12:00 AM 42.8 °F 34.5 °F 32.0 °F 66% 30.08 in 9.0 mi West 18.4 mph 26.5 mph N/A   Overcast
1:00 AM 42.8 °F 36.6 °F 33.8 °F 70% 30.09 in 9.0 mi West 11.5 mph 23.0 mph N/A   Mostly Cloudy
1:46 AM 42.8 °F 34.3 °F 32.0 °F 66% 30.10 in 9.0 mi West 19.6 mph 26.5 mph N/A Rain Light Rain
2:13 AM 42.8 °F 35.1 °F 33.8 °F 70% 30.10 in 9.0 mi West 16.1 mph 28.8 mph N/A   Mostly Cloudy
3:00 AM 42.8 °F 36.2 °F 33.8 °F 70% 30.11 in 9.0 mi WNW 12.7 mph 28.8 mph N/A   Overcast
3:28 AM 42.8 °F 36.6 °F 33.8 °F 70% 30.12 in 9.0 mi WNW 11.5 mph 25.3 mph N/A Rain Light Rain
3:45 AM 41.0 °F 33.1 °F 33.8 °F 76% 30.12 in 9.0 mi West 15.0 mph 25.3 mph N/A   Overcast
3:54 AM 41.0 °F 33.1 °F 33.8 °F 76% 30.13 in 9.0 mi WNW 15.0 mph 21.9 mph N/A Rain Light Rain
4:00 AM 42 °F - 34 °F 64% 30.13 in - Calm Calm - -  
4:00 AM 41.0 °F 32.5 °F 33.8 °F 76% 30.13 in 9.0 mi West 17.3 mph 23.0 mph N/A Rain Light Rain
4:41 AM 41.0 °F 35.8 °F 33.8 °F 76% 30.15 in 9.0 mi West 8.1 mph 24.2 mph N/A   Overcast
5:00 AM 41.0 °F 33.5 °F 33.8 °F 76% 30.15 in 9.0 mi West 13.8 mph 20.7 mph N/A   Overcast
6:00 AM 41.0 °F 34.3 °F 33.8 °F 76% 30.18 in 9.0 mi West 11.5 mph - N/A   Overcast
6:30 AM 41.0 °F 33.9 °F 33.8 °F 76% 30.19 in 9.0 mi WNW 12.7 mph 20.7 mph N/A Rain Light Rain
6:56 AM 41.0 °F 35.8 °F 33.8 °F 76% 30.19 in 9.0 mi NW 8.1 mph - N/A   Overcast
7:00 AM 41 °F - 34 °F 67% 30.19 in - North 6.9 mph - -  
7:00 AM 41.0 °F 35.8 °F 33.8 °F 76% 30.19 in 9.0 mi WNW 8.1 mph - N/A   Overcast
8:00 AM 41.0 °F 35.8 °F 33.8 °F 76% 30.20 in 9.0 mi WNW 8.1 mph - N/A   Overcast
8:09 AM 41.0 °F 35.2 °F 33.8 °F 76% 30.21 in 9.0 mi WNW 9.2 mph - N/A Rain Light Rain
8:41 AM 41.0 °F 32.8 °F 33.8 °F 76% 30.22 in 9.0 mi West 16.1 mph - N/A   Overcast
9:00 AM 41.0 °F 34.3 °F 33.8 °F 76% 30.22 in 9.0 mi WNW 11.5 mph 18.4 mph N/A   Overcast
9:30 AM 42.8 °F 38.0 °F 33.8 °F 70% 30.22 in 9.0 mi WNW 8.1 mph 20.7 mph N/A Rain Light Rain
9:43 AM 41.0 °F 34.7 °F 33.8 °F 76% 30.22 in 9.0 mi WNW 10.4 mph 18.4 mph N/A   Overcast
10:00 AM 43 °F - 35 °F 65% 30.22 in - Calm Calm - -  
10:00 AM 42.8 °F 37.5 °F 35.6 °F 76% 30.22 in 9.0 mi WNW 9.2 mph 17.3 mph N/A   Overcast
11:00 AM 42.8 °F 38.0 °F 33.8 °F 70% 30.22 in 9.0 mi WNW 8.1 mph 17.3 mph N/A   Overcast
11:31 AM 42.8 °F 37.5 °F 35.6 °F 76% 30.23 in 9.0 mi NW 9.2 mph 19.6 mph N/A Rain Light Rain
11:54 AM 44.6 °F 39.7 °F 35.6 °F 71% 30.23 in 9.0 mi WNW 9.2 mph 18.4 mph N/A   Mostly Cloudy
12:00 PM 46.4 °F 42.4 °F 35.6 °F 66% 30.23 in 9.0 mi WNW 8.1 mph 17.3 mph N/A   Scattered Clouds
1:00 PM 47 °F - 35 °F 53% 30.22 in - North 9.2 mph - -  
1:00 PM 48.2 °F - 33.8 °F 58% 30.23 in 9.0 mi WNW 11.5 mph 19.6 mph N/A   Mostly Cloudy
2:00 PM 46.4 °F 41.9 °F 33.8 °F 62% 30.24 in 9.0 mi NW 9.2 mph 20.7 mph N/A   Overcast
3:00 PM 46.4 °F 43.5 °F 32.0 °F 57% 30.24 in 9.0 mi NW 5.8 mph - N/A   Overcast
4:00 PM 46 °F - 33 °F 48% 30.24 in - Calm Calm - -  
5:00 PM 46.4 °F 44.3 °F 32.0 °F 57% 30.26 in 9.0 mi Variable 4.6 mph - N/A   Mostly Cloudy
6:00 PM 44.6 °F - 33.8 °F 66% 30.27 in 9.0 mi Variable 2.3 mph - N/A   Overcast
7:00 PM 42 °F - 35 °F 68% 30.28 in - North 5.8 mph - -  
7:00 PM 42.8 °F 38.6 °F 35.6 °F 76% 30.29 in 9.0 mi SW 6.9 mph - N/A   Overcast
8:00 PM 41.0 °F - 35.6 °F 81% 30.30 in 9.0 mi Calm Calm - N/A   Overcast
9:00 PM 37.4 °F - 35.6 °F 93% 30.32 in 9.0 mi SSE 2.3 mph - N/A   Overcast
10:00 PM 39 °F - 36 °F 85% 30.32 in - Calm Calm - -  
10:00 PM 39.2 °F - 35.6 °F 87% 30.32 in 9.0 mi Calm Calm - N/A   Overcast
10:18 PM 39.2 °F - 35.6 °F 87% 30.33 in 9.0 mi Calm Calm - N/A Rain Light Rain
10:41 PM 39.2 °F - 35.6 °F 87% 30.33 in 9.0 mi East 2.3 mph - N/A   Overcast
11:00 PM 37.4 °F - 35.6 °F 93% 30.33 in 9.0 mi ESE 2.3 mph - N/A   Overcast